When you browse on this site, cookies collect data to enhance your experience and personalize the content and advertising you see.
Visit our Privacy Policy to learn more. By continuing to use the site, you agree to this use of cookies and data.
  • In Hungary
  • List of Countries
  • For 7 days
  • Water Temperature
  • Satellite Maps
  • Weather Map
  • News
  • Weather Widgets
  • user-avatar
    Login

    Hourly Weather Eckernforde

    Today, 22 February, Friday

    Time Temperature Precipitation Wind Pressure Humidity
    00:00 +7°C° 0 mm 3 mps 769 mmHg 96%
    01:00 +5°C° 0 mm 3 mps 771 mmHg 96%
    02:00 +5°C° 0 mm 3 mps 771 mmHg 96%
    03:00 +5°C° 0 mm 3 mps 772 mmHg 95%
    04:00 +5°C° 0 mm 3 mps 772 mmHg 95%
    05:00 +4°C° 0 mm 4 mps 773 mmHg 93%
    06:00 +2°C° 0 mm 5 mps 774 mmHg 91%
    07:00 +1°C° 0 mm 6 mps 776 mmHg 88%
    08:00 +1°C° 0 mm 6 mps 776 mmHg 84%
    09:00 +1°C° 0 mm 6 mps 777 mmHg 81%
    10:00 +1°C° 0 mm 6 mps 778 mmHg 77%
    11:00 +2°C° 0 mm 6 mps 778 mmHg 73%
    12:00 +2°C° 0 mm 6 mps 779 mmHg 69%
    13:00 +3°C° 0 mm 5 mps 780 mmHg 69%
    14:00 +3°C° 0 mm 5 mps 780 mmHg 68%
    15:00 +3°C° 0 mm 5 mps 780 mmHg 68%
    16:00 +3°C° 0 mm 5 mps 780 mmHg 67%
    17:00 +2°C° 0 mm 5 mps 780 mmHg 70%
    18:00 +1°C° 0 mm 4 mps 780 mmHg 72%
    19:00 0°C° 0 mm 4 mps 780 mmHg 75%
    20:00 0°C° 0 mm 4 mps 781 mmHg 74%
    21:00 0°C° 0 mm 4 mps 781 mmHg 74%
    22:00 0°C° 0 mm 3 mps 781 mmHg 74%
    23:00 0°C° 0 mm 3 mps 781 mmHg 74%

    Tomorrow, 23 February, Saturday

    Time Temperature Precipitation Wind Pressure Humidity
    00:00 -1°C° 0 mm 4 mps 781 mmHg 73%
    01:00 -1°C° 0 mm 4 mps 781 mmHg 73%
    02:00 -2°C° 0 mm 4 mps 781 mmHg 72%
    03:00 -1°C° 0 mm 3 mps 781 mmHg 72%
    04:00 -1°C° 0 mm 3 mps 781 mmHg 72%
    05:00 -1°C° 0 mm 3 mps 781 mmHg 70%
    06:00 -1°C° 0 mm 3 mps 781 mmHg 69%
    07:00 -2°C° 0 mm 3 mps 781 mmHg 67%
    08:00 0°C° 0 mm 3 mps 781 mmHg 62%
    09:00 +1°C° 0 mm 3 mps 781 mmHg 57%
    10:00 +1°C° 0 mm 4 mps 780 mmHg 52%
    11:00 +3°C° 0 mm 3 mps 780 mmHg 50%
    12:00 +4°C° 0 mm 3 mps 780 mmHg 48%
    13:00 +7°C° 0 mm 3 mps 780 mmHg 46%
    14:00 +7°C° 0 mm 3 mps 780 mmHg 48%
    15:00 +7°C° 0 mm 2 mps 779 mmHg 50%
    16:00 +7°C° 0 mm 2 mps 779 mmHg 53%
    17:00 +6°C° 0 mm 2 mps 779 mmHg 54%
    18:00 +5°C° 0 mm 2 mps 779 mmHg 56%
    19:00 +3°C° 0 mm 2 mps 779 mmHg 57%
    20:00 +3°C° 0 mm 2 mps 779 mmHg 56%
    21:00 +2°C° 0 mm 3 mps 779 mmHg 55%
    22:00 +1°C° 0 mm 3 mps 778 mmHg 53%
    23:00 +1°C° 0 mm 3 mps 778 mmHg 53%

    Day after tomorrow, 24 February, Sunday

    Time Temperature Precipitation Wind Pressure Humidity
    00:00 +1°C° 0 mm 3 mps 778 mmHg 53%
    01:00 +2°C° 0 mm 2 mps 778 mmHg 54%
    02:00 +2°C° 0 mm 2 mps 778 mmHg 54%
    03:00 +2°C° 0 mm 2 mps 778 mmHg 55%
    04:00 +2°C° 0 mm 2 mps 778 mmHg 56%
    05:00 +2°C° 0 mm 2 mps 778 mmHg 57%
    06:00 +1°C° 0 mm 2 mps 778 mmHg 58%
    07:00 +1°C° 0 mm 2 mps 778 mmHg 59%
    08:00 +3°C° 0 mm 2 mps 778 mmHg 58%
    09:00 +4°C° 0 mm 2 mps 779 mmHg 58%
    10:00 +6°C° 0 mm 2 mps 779 mmHg 57%
    11:00 +7°C° 0 mm 2 mps 779 mmHg 56%
    12:00 +9°C° 0 mm 2 mps 779 mmHg 54%
    13:00 +10°C° 0 mm 3 mps 779 mmHg 52%
    14:00 +10°C° 0 mm 3 mps 779 mmHg 55%
    15:00 +10°C° 0 mm 3 mps 778 mmHg 58%
    16:00 +10°C° 0 mm 3 mps 778 mmHg 61%
    17:00 +8°C° 0 mm 2 mps 779 mmHg 63%
    18:00 +7°C° 0 mm 2 mps 779 mmHg 65%
    19:00 +5°C° 0 mm 2 mps 779 mmHg 67%
    20:00 +4°C° 0 mm 2 mps 779 mmHg 64%
    21:00 +4°C° 0 mm 2 mps 779 mmHg 61%
    22:00 +4°C° 0 mm 2 mps 779 mmHg 58%
    23:00 +3°C° 0 mm 2 mps 779 mmHg 57%

    25 February, Monday

    Time Temperature Precipitation Wind Pressure Humidity
    00:00 +3°C° 0 mm 2 mps 779 mmHg 56%
    01:00 +3°C° 0 mm 2 mps 780 mmHg 55%
    02:00 +3°C° 0 mm 2 mps 779 mmHg 55%
    03:00 +3°C° 0 mm 2 mps 779 mmHg 55%
    04:00 +3°C° 0 mm 2 mps 779 mmHg 55%
    05:00 +3°C° 0 mm 2 mps 779 mmHg 56%
    06:00 +3°C° 0 mm 2 mps 779 mmHg 56%
    07:00 +3°C° 0 mm 2 mps 779 mmHg 56%
    08:00 +4°C° 0 mm 2 mps 779 mmHg 56%
    09:00 +6°C° 0 mm 2 mps 780 mmHg 56%
    10:00 +7°C° 0 mm 2 mps 780 mmHg 55%
    11:00 +9°C° 0 mm 2 mps 780 mmHg 53%
    12:00 +10°C° 0 mm 2 mps 779 mmHg 51%
    13:00 +12°C° 0 mm 3 mps 779 mmHg 49%
    14:00 +11°C° 0 mm 3 mps 779 mmHg 52%
    15:00 +11°C° 0 mm 3 mps 779 mmHg 54%
    16:00 +11°C° 0 mm 3 mps 778 mmHg 57%
    17:00 +9°C° 0 mm 3 mps 778 mmHg 60%
    18:00 +7°C° 0 mm 3 mps 778 mmHg 62%
    19:00 +6°C° 0 mm 2 mps 778 mmHg 64%
    20:00 +5°C° 0 mm 2 mps 778 mmHg 63%
    21:00 +5°C° 0 mm 2 mps 778 mmHg 61%
    22:00 +5°C° 0 mm 2 mps 778 mmHg 59%
    23:00 +3°C° 0 mm 3 mps 778 mmHg 59%

    26 February, Tuesday

    Time Temperature Precipitation Wind Pressure Humidity
    00:00 +3°C° 0 mm 3 mps 778 mmHg 59%
    01:00 +3°C° 0 mm 3 mps 777 mmHg 59%
    02:00 +3°C° 0 mm 3 mps 777 mmHg 59%
    03:00 +3°C° 0 mm 3 mps 777 mmHg 60%
    04:00 +3°C° 0 mm 3 mps 776 mmHg 60%
    05:00 +3°C° 0 mm 3 mps 776 mmHg 62%
    06:00 +3°C° 0 mm 3 mps 776 mmHg 64%
    07:00 +3°C° 0 mm 3 mps 776 mmHg 67%
    08:00 +4°C° 0 mm 3 mps 776 mmHg 66%
    09:00 +7°C° 0 mm 3 mps 776 mmHg 65%
    10:00 +8°C° 0 mm 3 mps 776 mmHg 63%
    11:00 +10°C° 0 mm 3 mps 776 mmHg 62%
    12:00 +11°C° 0 mm 3 mps 776 mmHg 61%
    13:00 +13°C° 0 mm 3 mps 776 mmHg 59%
    14:00 +13°C° 0 mm 3 mps 776 mmHg 61%
    15:00 +12°C° 0 mm 3 mps 775 mmHg 63%
    16:00 +12°C° 0 mm 3 mps 775 mmHg 65%
    17:00 +10°C° 0 mm 3 mps 775 mmHg 70%
    18:00 +9°C° 0 mm 3 mps 775 mmHg 75%
    19:00 +7°C° 0 mm 3 mps 775 mmHg 81%
    20:00 +5°C° 0 mm 3 mps 774 mmHg 81%
    21:00 +5°C° 0 mm 3 mps 774 mmHg 81%
    22:00 +5°C° 0 mm 3 mps 774 mmHg 81%
    23:00 +5°C° 0 mm 3 mps 774 mmHg 81%

    27 February, Wednesday

    Time Temperature Precipitation Wind Pressure Humidity
    00:00 +4°C° 0 mm 3 mps 773 mmHg 82%
    01:00 +4°C° 0 mm 3 mps 773 mmHg 82%
    02:00 +4°C° 0 mm 3 mps 773 mmHg 84%
    03:00 +4°C° 0 mm 3 mps 772 mmHg 85%
    04:00 +4°C° 0 mm 3 mps 772 mmHg 87%
    05:00 +4°C° 0 mm 3 mps 772 mmHg 88%
    06:00 +4°C° 0 mm 3 mps 771 mmHg 89%
    07:00 +5°C° 0 mm 2 mps 771 mmHg 90%
    08:00 +5°C° 0 mm 3 mps 771 mmHg 86%
    09:00 +7°C° 0 mm 3 mps 770 mmHg 81%
    10:00 +9°C° 0 mm 3 mps 770 mmHg 77%
    11:00 +10°C° 0 mm 3 mps 770 mmHg 73%
    12:00 +11°C° 0 mm 3 mps 769 mmHg 70%
    13:00 +12°C° 0 mm 4 mps 769 mmHg 66%
    14:00 +12°C° 0 mm 4 mps 768 mmHg 67%
    15:00 +12°C° 0 mm 4 mps 768 mmHg 68%
    16:00 +11°C° 0 mm 4 mps 767 mmHg 69%
    17:00 +8°C° 0 mm 4 mps 767 mmHg 75%
    18:00 +8°C° 0 mm 3 mps 767 mmHg 81%
    19:00 +5°C° 0 mm 3 mps 767 mmHg 88%
    20:00 +5°C° 0 mm 3 mps 766 mmHg 89%
    21:00 +4°C° 0 mm 3 mps 766 mmHg 91%
    22:00 +4°C° 0 mm 3 mps 766 mmHg 92%
    23:00 +3°C° 0 mm 3 mps 766 mmHg 89%
    Show more